Flag for Iran Weather past 2 weeks in Mashhad, Iran

Now
91 °F

Sunny.


Feels Like: 87 °F
Forecast: 55 / 95 °F
Wind: 12 mph from East

Location: Mashhad Airport

Current Time: Sep 16, 2014 at 2:23:47 PM

Latest Report: Sep 16, 2014 at 1:55 PM


Visibility: 10 mi

Pressure: 29.86 "Hg

Humidity: 7%

Dew point: 18 °F

Location of MashhadLocation

Historic Weather in Mashhad — Graph

°F

Mashhad temperature yesterday

Maximum temperature yesterday: 91 °F (at 2:30 PM)
Minimum temperature yesterday: 63 °F (at 3:30 AM)
Average temperature yesterday: 76 °F

Past Weeks' High & Low Weather Summary

 TemperatureHumidityPressure
High93 °F (Sep 1, 1:30 PM)40% (Sep 3, 6:00 AM)30.12 "Hg (Sep 3, 6:00 AM)
Low55 °F (Sep 12, 5:30 AM)4% (Sep 5, 3:30 PM)29.77 "Hg (Sep 5, 4:00 PM)
Average76 °F16%29.99 "Hg
* Reported Sep 1 12:30 PM — Sep 16 1:00 PM, Mashhad, Weather by CustomWeather, © 2014

Note: Actual official high and low records may vary slightly from our data, if they occured in-between our weather recording intervals... More about our weather records

Advertising

Mashhad weather history for previous 24 hours

 ConditionsComfort  
Time TempWeatherWind HumidityBarometerVisibility
1:00 PM
Sep 16
88 °FSunny.14 mph7%29.89 "Hg10 mi
12:30 PM88 °FSunny.5 mph9%29.92 "Hg10 mi
11:55 AM88 °FSunny.7 mph8%29.92 "Hg10 mi
11:30 AM86 °FSunny.9 mph15%29.95 "Hg10 mi
11:00 AM84 °FSunny.5 mph16%29.95 "Hg10 mi
10:30 AM82 °FSunny.7 mph19%29.95 "Hg10 mi
10:00 AM81 °FSunny.7 mph18%29.95 "Hg10 mi
9:30 AM77 °FSunny.5 mph22%29.95 "Hg10 mi
9:00 AM75 °FSunny.5 mph22%29.95 "Hg10 mi
8:30 AM75 °FSunny.5 mph24%29.98 "Hg10 mi
8:00 AM70 °FSunny.5 mph29%29.95 "Hg10 mi
7:30 AM66 °FClear.5 mph32%29.95 "Hg10 mi
7:00 AM64 °FClear.5 mph34%29.95 "Hg10 mi
6:30 AM63 °FClear.5 mph37%29.95 "Hg10 mi
5:30 AM64 °FClear.7 mph28%29.92 "Hg10 mi
5:00 AM64 °FClear.7 mph37%29.92 "Hg10 mi
4:30 AM66 °FClear.5 mph35%29.95 "Hg10 mi
4:00 AM66 °FClear.5 mph35%29.92 "Hg10 mi
3:30 AM64 °FClear.5 mph34%29.95 "Hg10 mi
2:55 AM66 °FClear.5 mph30%29.95 "Hg10 mi
2:30 AM68 °FClear.No wind26%29.92 "Hg10 mi
2:00 AM70 °FClear.5 mph23%29.92 "Hg10 mi
1:30 AM72 °FClear.7 mph22%29.95 "Hg10 mi
1:00 AM72 °FClear.7 mph22%29.95 "Hg10 mi
12:30 AM72 °FClear.7 mph23%29.95 "Hg10 mi
12:00 AM73 °FClear.7 mph23%29.95 "Hg10 mi
11:30 PM
Sep 15
73 °FClear.9 mph25%29.95 "Hg10 mi
11:00 PM75 °FClear.9 mph24%29.95 "Hg10 mi
10:30 PM75 °FClear.12 mph25%29.95 "Hg10 mi
9:53 PM75 °FClear.9 mph27%29.95 "Hg10 mi
9:30 PM75 °FClear.9 mph27%29.95 "Hg10 mi
9:00 PM75 °FClear.9 mph27%29.95 "Hg10 mi
8:30 PM77 °FClear.7 mph24%29.95 "Hg10 mi
8:00 PM79 °FSunny.7 mph21%29.95 "Hg10 mi
7:30 PM81 °FSunny.9 mph20%29.92 "Hg10 mi
7:00 PM82 °FSunny.7 mph19%29.92 "Hg10 mi
6:30 PM84 °FSunny.9 mph18%29.92 "Hg10 mi
6:00 PM86 °FSunny.12 mph15%29.92 "Hg10 mi
5:30 PM88 °FSunny.14 mph13%29.92 "Hg10 mi
4:30 PM90 °FSunny.14 mph11%29.92 "Hg10 mi
4:00 PM91 °FSunny.16 mph7%29.92 "Hg10 mi
3:30 PM91 °FSunny.9 mph7%29.92 "Hg10 mi
2:30 PM91 °FSunny.12 mph7%29.95 "Hg10 mi
2:00 PM90 °FSunny.12 mph8%29.95 "Hg10 mi
Weather by CustomWeather, © 2014

See weather overviewHow to use our weather pages